Location: Peach Mountain Observatory
(42.3967°N, 83.9367°W)
Time: 21:39:15
(UTC-04:00)

deb Explorer IX - Pass Details

Date: 21 January 2020
Orbit: 547 x 1100 km, 38.8° (Epoch: 06 April)

Event Time Altitude Azimuth Distance (km) Brightness Sun altitude
Rises 06:08:59 0° 274° (W) 3,704 - -20.2°
Reaches altitude 10° 06:12:58 10° 253° (WSW) 2,641 - -19.4°
Exits shadow 06:15:42 15° 227° (SW) 2,228 ? -18.9°
Maximum altitude 06:16:20 15° 220° (SW) 2,194 ? -18.8°
Drops below altitude 10° 06:19:29 10° 187° (S) 2,420 ? -18.2°
Sets 06:22:54 0° 164° (SSE) 3,222 ? -17.6°
